Back to catalog

ONEWEB-0443

AliveCommunicationsPO
NORAD 51637·PAYLOAD·🇬🇧 United Kingdom

Launched Feb 10, 2022 from Guiana Space Centre

Loading…

Next Passes (next 24 hours)

TLE

FreshSource: CelesTrak SupGP

Epoch: Sep 14, 2026, 14:59 UTC

1 51637C 22012R   26257.62479583  .00002111  00000+0  54444-2 0  2579
2 51637  87.9202 348.1175 0002229 100.8848  12.5618 13.17649182    11

Track ONEWEB-0443 in real time with AllMySat

Download on the App Store